Tracking 29892 objects as of 21-Nov-2024
HD Live streaming from Space Station
objects crossing your sky now

OSCAR 18 (WEBERSAT)

Track OSCAR 18 (WEBERSAT) now!
10-day predictions
OSCAR 18 (WEBERSAT) is classified as:


NORAD ID: 20441
Int'l Code: 1990-005F
Perigee: 777.8 km
Apogee: 795.6 km
Inclination: 98.9 °
Period: 100.4 minutes
Semi major axis: 7157 km
RCS: 0.1264 m2 (medium)
Launch date: January 22, 1990
Source: United States (US)
Launch site: FRENCH GUIANA (FRGUI)

Uplink (MHz):
Downlink (MHz): 437.104/437.075
Beacon (MHz):
Mode: 1200bps PSK
Call sign:
Status: Inactive

Your satellite tracking list
Your tracking list is empty




NASA's NSSDC Master Catalog

Two Line Element Set (TLE):
1 20441U 90005F   24325.50286609  .00000321  00000-0  13240-3 0  9996
2 20441  98.9007 326.9727 0012384 101.4840  61.0809 14.33644443819848
Source of the keplerian elements: AFSPC